Orbital Elements at Epoch 2459200.5 (2020-Dec-17.0) TDB
Reference: JPL 17 (heliocentric ecliptic J2000)
Element | Value | Uncertainty (1-sigma) | Units |
e | .1632887629170291 | 4.8497e-08 | |
a | 2.246803597116688 | 6.9e-09 | au |
q | 1.879925817225973 | 1.0942e-07 | au |
i | 7.095708948739892 | 4.3337e-06 | deg |
node | 235.1619363110646 | 3.6794e-05 | deg |
peri | 126.1077742427167 | 3.9407e-05 | deg |
M | 129.1139512840562 | 1.1816e-05 | deg |
tp | 2458759.319037392422 (2019-Oct-02.81903739) | 4.0456e-05 | TDB |
period | 1230.116071572359 3.37 | 5.6666e-06 1.551e-08 | d yr |
n | .2926553097870194 | 1.3481e-09 | deg/d |
Q | 2.613681377007404 | 8.0267e-09 | au |
|
| | Orbit Determination Parameters
Additional Information
|